Regional Weather Roundup
Issued by NWS

Home | Current Version | Previous Version | Graphics & Text | Print | Product List | Glossary On
Versions: 1 2 3 4 5 6 7 8 9 10 11 12 13 14 15 16 17 18 19 20 21 22 23 24 25 26 27 28 29 30 31 32 33 34 35 36 37 38 39 40 41 42 43 44 45 46 47 48 49 50
000
ASUS43 KLMK 281002
RWRKY
KENTUCKY REGIONAL WEATHER ROUNDUP
NATIONAL WEATHER SERVICE LOUISVILLE KY
600 AM EDT FRI AUG 28 2015

NOTE "FAIR" INDICATES FEW OR NO CLOUDS BELOW 12,000 FEET
WITH NO SIGNIFICANT WEATHER AND/OR OBSTRUCTIONS TO VISIBILITY.

KYZ001>023-026-027-061>063-070>075-281100-
WESTERN AND SOUTH CENTRAL KENTUCKY

CITY           SKY/WX    TMP DP  RH WIND       PRES   REMARKS
PADUCAH        CLEAR     57  55  93 CALM      30.10R
HENDERSON      CLEAR     54  50  87 CALM      30.12S
OWENSBORO      CLEAR     60  58  93 CALM      30.13R
HOPKINSVILLE   CLEAR     60  55  85 NE2       30.10R
BOWLING GREEN  CLEAR     58  55  90 CALM      30.11R
GLASGOW        CLEAR     56  56 100 CALM      30.11S
$$

KYZ024-025-028>034-038-045-046-053-281100-
NORTH CENTRAL KENTUCKY

CITY           SKY/WX    TMP DP  RH WIND       PRES   REMARKS
LOUISVILLE/SDF CLEAR     62  56  80 N8        30.16R
LOUISVILLE/LOU CLEAR     60  56  86 NW5       30.17R
FORT KNOX      CLEAR     54  53  95 N5        30.14R
$$

KYZ035>037-039>044-047>052-055>060-089>105-281100-
NORTHEAST KENTUCKY

CITY           SKY/WX    TMP DP  RH WIND       PRES   REMARKS
LEXINGTON      CLEAR     54  50  86 NE3       30.15R
COVINGTON      PTCLDY    60  57  89 NE5       30.17R
FRANKFORT      CLEAR     53  51  93 CALM      30.14R
$$

KYZ054-064>069-076>088-106>120-281100-
SOUTHEAST KENTUCKY

CITY           SKY/WX    TMP DP  RH WIND       PRES   REMARKS
JACKSON        PTCLDY    60  55  83 CALM      30.14R
LONDON         PTCLDY    57  53  86 CALM      30.13S
SOMERSET       NOT AVBL
MIDDLESBORO    PTCLDY    56  56 100 CALM      30.15R
MONTICELLO     SUNNY     54  54 100 CALM      30.14F FOG
$$



USA.gov is the U.S. government's official web portal to all federal, state and local government web resources and services.